| time (UTC) | temp F | wind direction | speed MPH | gust MPH | rain 1hr in | rain 24hr in | rain mn in | humidity % | barometer mb |
| 20260505013516 | 74 | 47 | 3.0 | 5.0 | 0.07 | 0.39 | 0.39 | 85 | 1014.5 |
| 20260505012516 | 74 | 49 | 3.0 | 7.0 | 0.07 | 0.39 | 0.39 | 85 | 1014.4 |
| 20260505011516 | 75 | 88 | 4.0 | 9.0 | 0.03 | 0.34 | 0.34 | 83 | 1014.4 |
| 20260505010516 | 76 | 97 | 4.0 | 8.0 | 0.00 | 0.32 | 0.32 | 80 | 1014.2 |
| 20260505005516 | 76 | 87 | 4.0 | 7.0 | 0.00 | 0.32 | 0.32 | 79 | 1014.2 |
| 20260505004516 | 77 | 85 | 5.0 | 9.0 | 0.00 | 0.32 | 0.32 | 77 | 1014.1 |
| 20260505003516 | 77 | 66 | 3.0 | 7.0 | 0.00 | 0.32 | 0.32 | 71 | 1014.0 |
| 20260505002517 | 77 | 59 | 3.0 | 9.0 | 0.00 | 0.32 | 0.32 | 71 | 1014.0 |
| 20260505001517 | 77 | 58 | 4.0 | 8.0 | 0.00 | 0.32 | 0.32 | 71 | 1013.9 |
| 20260505000537 | 77 | 54 | 5.0 | 9.0 | 0.00 | 0.32 | 0.32 | 70 | 1013.9 |
| 20260504235517 | 77 | 50 | 3.0 | 7.0 | 0.00 | 0.32 | 0.32 | 70 | 1013.8 |
| 20260504234518 | 77 | 48 | 5.0 | 11.0 | 0.00 | 0.32 | 0.32 | 70 | 1013.8 |
| 20260504233518 | 77 | 55 | 5.0 | 10.0 | 0.00 | 0.32 | 0.32 | 70 | 1013.8 |
| 20260504232518 | 77 | 62 | 5.0 | 11.0 | 0.00 | 0.32 | 0.32 | 70 | 1013.7 |
| 20260504231518 | 78 | 57 | 5.0 | 9.0 | 0.00 | 0.32 | 0.32 | 70 | 1013.6 |
| 20260504230518 | 78 | 63 | 4.0 | 10.0 | 0.00 | 0.33 | 0.32 | 70 | 1013.6 |
| 20260504225618 | 78 | 60 | 5.0 | 13.0 | 0.00 | 0.33 | 0.32 | 69 | 1013.6 |
| 20260504224515 | 78 | 59 | 5.0 | 10.0 | 0.00 | 0.34 | 0.32 | 69 | 1013.5 |
| 20260504223516 | 78 | 59 | 5.0 | 10.0 | 0.00 | 0.34 | 0.32 | 69 | 1013.5 |
| 20260504222519 | 78 | 53 | 6.0 | 10.0 | 0.00 | 0.34 | 0.32 | 68 | 1013.6 |
| 20260504221516 | 78 | 61 | 4.0 | 8.0 | 0.00 | 0.34 | 0.32 | 69 | 1013.7 |
| 20260504220516 | 79 | 62 | 5.0 | 11.0 | 0.00 | 0.34 | 0.32 | 69 | 1013.6 |
| 20260504215516 | 79 | 54 | 4.0 | 9.0 | 0.00 | 0.34 | 0.32 | 68 | 1013.7 |
| 20260504214516 | 79 | 54 | 5.0 | 10.0 | 0.00 | 0.34 | 0.32 | 68 | 1013.5 |
| 20260504213516 | 79 | 40 | 5.0 | 9.0 | 0.01 | 0.34 | 0.32 | 69 | 1013.5 |
| 20260504212517 | 78 | 59 | 6.0 | 15.0 | 0.01 | 0.34 | 0.32 | 70 | 1013.8 |
| 20260504211537 | 78 | 47 | 5.0 | 12.0 | 0.01 | 0.34 | 0.32 | 71 | 1013.8 |
| 20260504210518 | 77 | 52 | 5.0 | 10.0 | 0.01 | 0.34 | 0.32 | 73 | 1013.9 |
| 20260504205517 | 77 | 50 | 6.0 | 11.0 | 0.01 | 0.34 | 0.32 | 73 | 1013.7 |
| 20260504204518 | 77 | 59 | 3.0 | 9.0 | 0.01 | 0.34 | 0.32 | 71 | 1013.5 |
| 20260504203517 | 78 | 17 | 3.0 | 6.0 | 0.00 | 0.33 | 0.31 | 70 | 1013.8 |
| 20260504202518 | 78 | 24 | 5.0 | 10.0 | 0.00 | 0.33 | 0.31 | 70 | 1013.9 |
| 20260504201518 | 78 | 41 | 5.0 | 10.0 | 0.00 | 0.33 | 0.31 | 70 | 1013.9 |
| 20260504200518 | 79 | 45 | 6.0 | 15.0 | 0.00 | 0.33 | 0.31 | 69 | 1013.8 |
| 20260504195518 | 79 | 45 | 6.0 | 12.0 | 0.00 | 0.33 | 0.31 | 68 | 1014.1 |
| 20260504194559 | 79 | 47 | 7.0 | 12.0 | 0.00 | 0.33 | 0.31 | 69 | 1014.1 |
| 20260504193516 | 79 | 47 | 6.0 | 12.0 | 0.00 | 0.33 | 0.31 | 69 | 1014.1 |
| 20260504192516 | 78 | 45 | 6.0 | 10.0 | 0.00 | 0.33 | 0.31 | 70 | 1014.5 |
| 20260504191516 | 78 | 54 | 7.0 | 12.0 | 0.00 | 0.33 | 0.31 | 70 | 1014.6 |
| 20260504190516 | 78 | 60 | 6.0 | 12.0 | 0.00 | 0.33 | 0.31 | 70 | 1014.6 |
| 20260504185516 | 78 | 47 | 6.0 | 10.0 | 0.00 | 0.33 | 0.31 | 69 | 1014.6 |
| 20260504184536 | 79 | 61 | 7.0 | 12.0 | 0.00 | 0.33 | 0.31 | 68 | 1014.8 |
| 20260504183516 | 80 | 46 | 5.0 | 12.0 | 0.00 | 0.33 | 0.31 | 68 | 1014.8 |
| 20260504182517 | 80 | 59 | 6.0 | 11.0 | 0.00 | 0.33 | 0.31 | 67 | 1015.4 |
| 20260504181517 | 79 | 59 | 6.0 | 12.0 | 0.00 | 0.33 | 0.31 | 69 | 1015.2 |
| 20260504180517 | 79 | 56 | 6.0 | 12.0 | 0.00 | 0.33 | 0.31 | 69 | 1014.9 |
| 20260504175517 | 79 | 36 | 7.0 | 15.0 | 0.00 | 0.33 | 0.31 | 69 | 1015.0 |
| 20260504174517 | 79 | 35 | 6.0 | 10.0 | 0.00 | 0.34 | 0.31 | 70 | 1015.2 |
| 20260504173518 | 79 | 51 | 5.0 | 13.0 | 0.00 | 0.36 | 0.31 | 70 | 1015.7 |
| 20260504172518 | 77 | 50 | 6.0 | 19.0 | 0.02 | 0.37 | 0.31 | 74 | 1015.5 |
| 20260504171518 | 77 | 64 | 7.0 | 10.0 | 0.04 | 0.37 | 0.31 | 76 | 1015.4 |
| 20260504151017 | 78 | 50 | 4.0 | 10.0 | 0.00 | 0.34 | 0.27 | 73 | 1015.5 |
| 20260504141039 | 77 | 15 | 4.0 | 9.0 | 0.00 | 0.34 | 0.27 | 79 | 1014.9 |
| 20260504081018 | 73 | 313 | 1.0 | 3.0 | 0.27 | 0.61 | 0.27 | 89 | 1012.5 |
| 20260504050021 | 75 | 23 | 1.0 | 2.0 | 0.00 | 0.34 | 0.00 | 82 | 1014.7 |
| 20260504045022 | 75 | 52 | 2.0 | 4.0 | 0.00 | 0.34 | 0.00 | 83 | 1014.5 |
| 20260504044022 | 75 | 54 | 2.0 | 4.0 | 0.00 | 0.34 | 0.00 | 83 | 1014.7 |
| 20260504043022 | 75 | 47 | 2.0 | 4.0 | 0.00 | 0.34 | 0.00 | 83 | 1014.6 |
| 20260504042022 | 75 | 46 | 1.0 | 3.0 | 0.00 | 0.34 | 0.00 | 83 | 1014.7 |
| 20260504041022 | 75 | 42 | 2.0 | 3.0 | 0.00 | 0.34 | 0.00 | 83 | 1014.9 |
| 20260504040042 | 75 | 54 | 1.0 | 3.0 | 0.00 | 0.34 | 0.00 | 83 | 1015.0 |
| 20260504035023 | 75 | 49 | 2.0 | 4.0 | 0.00 | 0.34 | 0.34 | 82 | 1015.1 |
| 20260504034020 | 75 | 61 | 2.0 | 5.0 | 0.00 | 0.34 | 0.34 | 83 | 1015.1 |
| 20260504033042 | 75 | 54 | 1.0 | 4.0 | 0.00 | 0.34 | 0.34 | 83 | 1015.1 |
| 20260504032017 | 74 | 55 | 1.0 | 5.0 | 0.00 | 0.34 | 0.34 | 84 | 1015.2 |
| 20260504015016 | 75 | 17 | 3.0 | 5.0 | 0.00 | 0.34 | 0.34 | 85 | 1015.0 |